Location: Berduj
(43.0019°N, 22.3781°E)
Time: 10:16:01
(UTC+00:00)

EO 1 Delta rocket - Pass Details

Date: 19 October 2019
Orbit: 698 x 1791 km, 95.4° (Epoch: 17 November)

Event Time Altitude Azimuth Distance (km) Brightness Sun altitude
Rises 17:02:56 0° 169° (S) 3,102 7.0 -15.5°
Reaches altitude 10° 17:05:10 10° 170° (S) 2,159 6.2 -15.9°
Maximum altitude 17:09:46 89° 260° (W) 713 3.8 -16.7°
Drops below altitude 10° 17:14:40 10° 351° (N) 2,299 6.6 -17.6°
Sets 17:17:07 0° 351° (N) 3,322 7.5 -18.1°
